Time,TemperatureF,DewpointF,PressureIn,WindDirection,WindDirectionDegrees,WindSpeedMPH,WindSpeedGustMPH,Humidity,HourlyPrecipIn,Conditions,Clouds,dailyrainin,SoftwareType,DateUTC
2017-03-24 00:02:00,34.7,33.2,30.20,WSW,248,0.0,0.0,94,0.00,RA,,0.00,WeatherDisplay:10.37,2017-03-24 07:02:00,
2017-03-24 00:07:00,34.5,33.2,30.19,WSW,248,0.0,0.0,95,0.00,RA,,0.00,WeatherDisplay:10.37,2017-03-24 07:07:00,
2017-03-24 00:12:00,34.2,32.9,30.20,WSW,248,0.0,0.0,95,0.00,CLR,,0.00,WeatherDisplay:10.37,2017-03-24 07:12:00,
2017-03-24 00:17:00,34.0,32.7,30.20,WSW,248,0.0,0.0,95,0.00,CLR,,0.00,WeatherDisplay:10.37,2017-03-24 07:17:00,
2017-03-24 00:22:00,33.9,32.6,30.20,WSW,248,1.2,1.2,95,0.00,CLR,,0.00,WeatherDisplay:10.37,2017-03-24 07:22:00,
2017-03-24 00:27:00,33.9,32.6,30.20,WSW,248,0.0,0.0,95,0.00,CLR,,0.00,WeatherDisplay:10.37,2017-03-24 07:27:00,
2017-03-24 00:32:00,33.8,32.5,30.20,WSW,248,0.0,0.0,95,0.00,CLR,,0.00,WeatherDisplay:10.37,2017-03-24 07:32:00,
2017-03-24 00:37:00,33.7,32.4,30.20,WSW,248,0.0,0.0,95,0.00,CLR,,0.00,WeatherDisplay:10.37,2017-03-24 07:37:00,
2017-03-24 00:42:00,33.4,32.4,30.19,WSW,248,0.0,0.0,96,0.00,CLR,,0.00,WeatherDisplay:10.37,2017-03-24 07:42:00,
2017-03-24 00:47:00,33.3,32.0,30.20,WSW,248,1.2,1.2,95,0.00,CLR,,0.00,WeatherDisplay:10.37,2017-03-24 07:47:00,
2017-03-24 00:52:00,33.2,32.2,30.20,WSW,248,0.0,0.0,96,0.00,CLR,,0.00,WeatherDisplay:10.37,2017-03-24 07:52:00,
2017-03-24 00:57:00,33.2,32.2,30.20,WSW,248,0.0,0.0,96,0.00,CLR,,0.00,WeatherDisplay:10.37,2017-03-24 07:57:00,
2017-03-24 01:02:00,33.3,32.3,30.20,WSW,248,0.0,0.1,96,0.00,CLR,,0.00,WeatherDisplay:10.37,2017-03-24 08:02:00,
2017-03-24 01:07:00,33.6,32.6,30.19,WSW,248,1.2,1.2,96,0.00,CLR,,0.00,WeatherDisplay:10.37,2017-03-24 08:07:00,
2017-03-24 01:12:00,33.8,32.8,30.19,East,98,2.3,2.3,96,0.00,CLR,,0.00,WeatherDisplay:10.37,2017-03-24 08:12:00,
2017-03-24 01:17:00,33.8,32.8,30.19,East,98,1.2,1.2,96,0.00,CLR,,0.00,WeatherDisplay:10.37,2017-03-24 08:17:00,
2017-03-24 01:22:00,34.0,33.0,30.19,NNE,29,0.0,0.0,96,0.00,CLR,,0.00,WeatherDisplay:10.37,2017-03-24 08:22:00,
2017-03-24 01:27:00,34.1,33.1,30.19,NNE,29,1.2,0.0,96,0.00,CLR,,0.00,WeatherDisplay:10.37,2017-03-24 08:27:00,
2017-03-24 01:32:00,34.1,33.1,30.18,ESE,108,1.2,0.0,96,0.00,CLR,,0.00,WeatherDisplay:10.37,2017-03-24 08:32:00,
2017-03-24 01:37:00,33.8,32.5,30.18,ESE,108,1.2,0.0,95,0.00,CLR,,0.00,WeatherDisplay:10.37,2017-03-24 08:37:00,
2017-03-24 01:42:00,33.5,32.2,30.19,NE,44,3.5,0.0,95,0.00,CLR,,0.00,WeatherDisplay:10.37,2017-03-24 08:42:00,
2017-03-24 01:47:00,33.8,32.8,30.19,NE,44,2.3,2.3,96,0.00,CLR,,0.00,WeatherDisplay:10.37,2017-03-24 08:47:00,
2017-03-24 01:52:00,34.0,33.0,30.19,NNE,24,2.3,2.3,96,0.00,CLR,,0.00,WeatherDisplay:10.37,2017-03-24 08:52:00,
2017-03-24 01:57:00,34.2,33.2,30.18,NNE,24,0.0,0.0,96,0.00,CLR,,0.00,WeatherDisplay:10.37,2017-03-24 08:57:00,
2017-03-24 02:02:00,34.3,33.3,30.18,NNE,24,0.0,0.0,96,0.00,CLR,,0.00,WeatherDisplay:10.37,2017-03-24 09:02:00,
2017-03-24 02:07:00,34.2,32.9,30.18,NNE,24,1.2,1.2,95,0.00,CLR,,0.00,WeatherDisplay:10.37,2017-03-24 09:07:00,
2017-03-24 02:12:00,34.1,32.8,30.18,NNE,33,0.0,0.0,95,0.00,CLR,,0.00,WeatherDisplay:10.37,2017-03-24 09:12:00,
2017-03-24 02:17:00,34.1,32.8,30.18,NNE,14,3.5,3.5,95,0.00,CLR,,0.00,WeatherDisplay:10.37,2017-03-24 09:17:00,
2017-03-24 02:22:00,34.1,32.8,30.18,NNE,14,0.0,0.0,95,0.00,CLR,,0.00,WeatherDisplay:10.37,2017-03-24 09:22:00,
2017-03-24 02:27:00,34.1,32.8,30.17,NNE,14,1.2,0.0,95,0.00,CLR,,0.00,WeatherDisplay:10.37,2017-03-24 09:27:00,
2017-03-24 02:32:00,34.2,33.2,30.17,NNE,14,0.0,0.0,96,0.00,CLR,,0.00,WeatherDisplay:10.37,2017-03-24 09:32:00,
2017-03-24 02:37:00,34.1,32.8,30.18,NNE,14,0.0,0.0,95,0.00,CLR,,0.00,WeatherDisplay:10.37,2017-03-24 09:37:00,
2017-03-24 02:42:00,34.1,32.8,30.18,NNE,14,0.0,0.1,95,0.00,CLR,,0.00,WeatherDisplay:10.37,2017-03-24 09:42:00,
2017-03-24 02:47:00,34.1,32.8,30.17,NNE,14,0.0,0.0,95,0.00,CLR,,0.00,WeatherDisplay:10.37,2017-03-24 09:47:00,
2017-03-24 02:52:00,34.2,32.9,30.18,NNE,13,3.5,3.5,95,0.00,CLR,,0.00,WeatherDisplay:10.37,2017-03-24 09:52:00,
2017-03-24 02:57:00,34.4,33.1,30.17,North,9,1.0,0.0,95,0.00,CLR,,0.00,WeatherDisplay:10.37,2017-03-24 09:57:00,
2017-03-24 03:02:00,34.5,33.0,30.16,North,9,0.0,0.0,94,0.00,CLR,,0.00,WeatherDisplay:10.37,2017-03-24 10:02:00,
2017-03-24 03:07:00,34.7,33.2,30.19,North,9,0.0,0.0,94,0.00,CLR,,0.00,WeatherDisplay:10.37,2017-03-24 10:07:00,
2017-03-24 03:12:00,34.6,33.1,30.19,North,9,0.0,0.0,94,0.00,CLR,,0.00,WeatherDisplay:10.37,2017-03-24 10:12:00,
2017-03-24 03:17:00,34.2,32.7,30.20,North,9,0.0,0.0,94,0.00,CLR,,0.00,WeatherDisplay:10.37,2017-03-24 10:17:00,
2017-03-24 03:22:00,33.8,32.3,30.21,North,9,1.2,1.2,94,0.00,CLR,,0.00,WeatherDisplay:10.37,2017-03-24 10:22:00,
2017-03-24 03:27:00,33.8,32.5,30.20,North,9,2.3,2.3,95,0.00,CLR,,0.00,WeatherDisplay:10.37,2017-03-24 10:27:00,
2017-03-24 03:32:00,33.8,32.5,30.20,North,9,0.0,0.0,95,0.00,CLR,,0.00,WeatherDisplay:10.37,2017-03-24 10:32:00,
2017-03-24 03:37:00,33.7,32.4,30.20,North,9,1.2,0.0,95,0.00,CLR,,0.00,WeatherDisplay:10.37,2017-03-24 10:37:00,
2017-03-24 03:42:00,33.6,32.3,30.21,North,9,0.0,0.0,95,0.00,CLR,,0.00,WeatherDisplay:10.37,2017-03-24 10:42:00,
2017-03-24 03:47:00,33.4,32.1,30.21,North,9,1.2,1.2,95,0.00,CLR,,0.00,WeatherDisplay:10.37,2017-03-24 10:47:00,
2017-03-24 03:52:00,33.3,32.0,30.21,North,9,0.0,0.0,95,0.00,CLR,,0.00,WeatherDisplay:10.37,2017-03-24 10:52:00,
2017-03-24 03:57:00,33.3,32.0,30.21,North,9,0.0,0.0,95,0.00,CLR,,0.00,WeatherDisplay:10.37,2017-03-24 10:57:00,
2017-03-24 03:58:00,33.3,32.3,30.20,NNE,17,2.0,2.0,96,0.00,CLR,,0.00,WeatherDisplay:10.37,2017-03-24 10:58:00,
2017-03-24 04:03:00,33.3,32.0,30.21,NNE,22,2.3,0.0,95,0.00,CLR,,0.00,WeatherDisplay:10.37,2017-03-24 11:03:00,
2017-03-24 04:08:00,33.1,31.8,30.20,SE,130,2.0,2.0,95,0.00,CLR,,0.00,WeatherDisplay:10.37,2017-03-24 11:08:00,
2017-03-24 04:13:00,33.0,31.7,30.20,ENE,71,2.3,2.3,95,0.00,CLR,,0.00,WeatherDisplay:10.37,2017-03-24 11:13:00,
2017-03-24 04:18:00,32.7,31.4,30.20,ENE,71,2.0,2.0,95,0.00,CLR,,0.00,WeatherDisplay:10.37,2017-03-24 11:18:00,
2017-03-24 04:23:00,32.8,31.5,30.20,ENE,71,0.0,0.0,95,0.00,CLR,,0.00,WeatherDisplay:10.37,2017-03-24 11:23:00,
2017-03-24 04:28:00,32.8,31.8,30.20,SE,132,3.0,0.0,96,0.00,CLR,,0.00,WeatherDisplay:10.37,2017-03-24 11:28:00,
2017-03-24 04:33:00,32.9,31.9,30.20,ESE,107,0.0,0.3,96,0.00,CLR,,0.00,WeatherDisplay:10.37,2017-03-24 11:33:00,
2017-03-24 04:38:00,33.0,31.7,30.20,ESE,102,0.0,0.1,95,0.00,CLR,,0.00,WeatherDisplay:10.37,2017-03-24 11:38:00,
2017-03-24 04:43:00,33.0,31.7,30.20,ESE,102,0.0,0.4,95,0.00,CLR,,0.00,WeatherDisplay:10.37,2017-03-24 11:43:00,
2017-03-24 04:48:00,33.4,32.1,30.20,ENE,65,2.3,2.3,95,0.00,CLR,,0.00,WeatherDisplay:10.37,2017-03-24 11:48:00,
2017-03-24 04:53:00,33.6,32.1,30.20,ENE,60,2.3,2.3,94,0.00,CLR,,0.00,WeatherDisplay:10.37,2017-03-24 11:53:00,
2017-03-24 04:58:00,33.5,32.0,30.20,ENE,60,1.2,1.2,94,0.00,CLR,,0.00,WeatherDisplay:10.37,2017-03-24 11:58:00,
2017-03-24 05:03:00,33.5,31.7,30.20,ENE,60,0.0,0.0,93,0.00,CLR,,0.00,WeatherDisplay:10.37,2017-03-24 12:03:00,
2017-03-24 05:08:00,33.4,31.6,30.21,ENE,60,2.3,2.3,93,0.00,CLR,,0.00,WeatherDisplay:10.37,2017-03-24 12:08:00,
2017-03-24 05:13:00,33.5,32.0,30.21,ENE,60,0.0,0.1,94,0.00,CLR,,0.00,WeatherDisplay:10.37,2017-03-24 12:13:00,
2017-03-24 05:18:00,33.7,31.9,30.21,SE,132,1.2,1.2,93,0.00,CLR,,0.00,WeatherDisplay:10.37,2017-03-24 12:18:00,
2017-03-24 05:23:00,33.9,31.8,30.20,SE,130,1.2,0.0,92,0.00,CLR,,0.00,WeatherDisplay:10.37,2017-03-24 12:23:00,
2017-03-24 05:28:00,33.9,31.8,30.20,SE,130,1.2,1.2,92,0.00,CLR,,0.00,WeatherDisplay:10.37,2017-03-24 12:28:00,
2017-03-24 05:34:00,33.9,31.8,30.21,NE,48,1.2,0.0,92,0.00,CLR,,0.00,WeatherDisplay:10.37,2017-03-24 12:34:00,
2017-03-24 05:39:00,34.0,31.6,30.21,NE,48,1.0,1.0,91,0.00,CLR,,0.00,WeatherDisplay:10.37,2017-03-24 12:39:00,
2017-03-24 05:44:00,34.1,31.7,30.21,NE,47,3.5,3.5,91,0.00,CLR,,0.00,WeatherDisplay:10.37,2017-03-24 12:44:00,
2017-03-24 05:49:00,34.1,31.7,30.21,NNE,28,3.5,3.5,91,0.00,CLR,,0.00,WeatherDisplay:10.37,2017-03-24 12:49:00,
2017-03-24 05:54:00,34.0,31.6,30.21,NNE,29,1.2,0.0,91,0.00,CLR,,0.00,WeatherDisplay:10.37,2017-03-24 12:54:00,
2017-03-24 05:59:00,33.8,31.5,30.20,NNE,28,1.2,1.2,91,0.00,CLR,,0.00,WeatherDisplay:10.37,2017-03-24 12:59:00,
2017-03-24 06:04:00,33.7,31.6,30.20,NNE,29,0.0,0.0,92,0.00,CLR,,0.00,WeatherDisplay:10.37,2017-03-24 13:04:00,
2017-03-24 06:09:00,33.6,31.5,30.20,NNE,29,1.2,1.2,92,0.00,CLR,,0.00,WeatherDisplay:10.37,2017-03-24 13:09:00,
2017-03-24 06:14:00,33.5,31.4,30.21,NNE,29,1.2,1.2,92,0.00,CLR,,0.00,WeatherDisplay:10.37,2017-03-24 13:14:00,
2017-03-24 06:19:00,33.6,31.3,30.21,NE,50,1.2,1.2,91,0.00,CLR,,0.00,WeatherDisplay:10.37,2017-03-24 13:19:00,
2017-03-24 06:24:00,33.9,31.6,30.21,NNE,28,4.6,4.6,91,0.00,CLR,,0.00,WeatherDisplay:10.37,2017-03-24 13:24:00,
2017-03-24 06:29:00,34.2,31.6,30.21,NNE,33,3.5,3.5,90,0.00,CLR,,0.00,WeatherDisplay:10.37,2017-03-24 13:29:00,
2017-03-24 06:34:00,34.4,31.2,30.21,NNE,30,3.5,3.5,88,0.00,CLR,,0.00,WeatherDisplay:10.37,2017-03-24 13:34:00,
2017-03-24 06:39:00,34.6,31.4,30.21,NNE,30,1.2,1.2,88,0.00,CLR,,0.00,WeatherDisplay:10.37,2017-03-24 13:39:00,
2017-03-24 06:44:00,34.7,31.2,30.21,NE,41,1.2,1.2,87,0.00,CLR,,0.00,WeatherDisplay:10.37,2017-03-24 13:44:00,
2017-03-24 06:49:00,34.7,31.5,30.21,NE,36,2.3,2.3,88,0.00,CLR,,0.00,WeatherDisplay:10.37,2017-03-24 13:49:00,
2017-03-24 06:54:00,34.4,31.5,30.21,NE,36,0.0,0.0,89,0.00,CLR,,0.00,WeatherDisplay:10.37,2017-03-24 13:54:00,
2017-03-24 06:59:00,34.1,30.9,30.21,NE,37,0.0,0.0,88,0.00,CLR,,0.00,WeatherDisplay:10.37,2017-03-24 13:59:00,
2017-03-24 07:04:00,34.0,31.1,30.22,NE,36,0.0,0.0,89,0.00,CLR,,0.00,WeatherDisplay:10.37,2017-03-24 14:04:00,
2017-03-24 07:09:00,34.1,31.2,30.23,NE,36,1.2,0.0,89,0.00,CLR,,0.00,WeatherDisplay:10.37,2017-03-24 14:09:00,
2017-03-24 07:14:00,34.2,31.3,30.23,NE,36,0.0,0.0,89,0.00,CLR,,0.00,WeatherDisplay:10.37,2017-03-24 14:14:00,
2017-03-24 07:19:00,34.2,31.0,30.23,NE,36,0.0,0.0,88,0.00,CLR,,0.00,WeatherDisplay:10.37,2017-03-24 14:19:00,
2017-03-24 07:24:00,34.4,31.2,30.23,NE,37,2.3,2.3,88,0.00,CLR,,0.00,WeatherDisplay:10.37,2017-03-24 14:24:00,
2017-03-24 07:29:00,34.7,31.2,30.22,ENE,59,1.2,1.2,87,0.00,CLR,,0.00,WeatherDisplay:10.37,2017-03-24 14:29:00,
2017-03-24 07:34:00,35.0,31.2,30.22,NE,37,2.3,2.3,86,0.00,CLR,,0.00,WeatherDisplay:10.37,2017-03-24 14:34:00,
2017-03-24 07:39:00,35.2,31.1,30.22,NE,40,0.0,0.0,85,0.00,CLR,,0.00,WeatherDisplay:10.37,2017-03-24 14:39:00,